Location: Dannhausen
(51.8650°N, 10.1026°E)
Time: 00:36:05
(UTC+00:00)

CARTOSAT-1 - Pass Details

Date: 09 April 2020
Orbit: 616 x 619 km, 97.8° (Epoch: 04 June)

Event Time Altitude Azimuth Distance (km) Brightness Sun altitude
Exits shadow 20:39:31 58° 135° (SE) 728 3.5 -20.9°
Maximum altitude 20:40:15 74° 74° (ENE) 651 3.5 -21.0°
Drops below altitude 10° 20:44:36 10° 349° (N) 1,999 7.0 -21.4°
Sets 20:46:48 0° 348° (NNW) 2,910 8.0 -21.6°
